Weather Roundup
Issued by NWS

Home | Current Version | Previous Version | Graphics & Text | Print | Product List | Glossary Off
Versions: 1 2 3 4 5 6 7 8 9 10 11 12 13 14 15 16 17 18 19 20 21 22 23 24 25 26 27 28 29 30 31 32 33 34 35 36 37 38 39 40 41 42 43 44 45 46 47 48 49 50

337
NZUS93 KARX 231859
HRRWXR

CURRENT HOURLY OBSERVATIONS ACROSS
MUCH OF THE UPPER MISSISSIPPI VALLEY
NATIONAL WEATHER SERVICE LA CROSSE WI
200 PM CDT TUE MAY 23 2017


...SOUTHEAST MINNESOTA...


CITY           SKY/WX    TMP DP  RH WIND       PRES   REMARKS
ROCHESTER      LGT RAIN  50  48  93 N9        29.79S
ROCHESTER/MAYO NOT AVBL
WINONA         CLOUDY    54  48  82 N5        29.75F
AUSTIN         RAIN      52  48  87 CALM      29.78S
ALBERT LEA     DRIZZLE   54  48  82 NW6       29.79S
DODGE CENTER   DRIZZLE   52  46  82 N13       29.79S
PRESTON        LGT RAIN  50  48  91 N12       29.76F
OWATONNA       RAIN      52  46  82 NE6       29.80S
FARIBAULT      CLOUDY    55  48  76 N7        29.80S
$$

...ELSEWHERE IN MINNESOTA...


CITY           SKY/WX    TMP DP  RH WIND       PRES   REMARKS
MINNEAPOLIS    CLOUDY    60  42  51 NE13G22   29.80F
INTNL FALLS    CLOUDY    52  43  71 N9        29.95F
DULUTH         CLOUDY    54  46  74 E10       29.87S
RED WING       DRIZZLE   55  46  71 NE6       29.79S
REDWOOD FALLS  CLOUDY    54  44  69 NE9       29.83F
MANKATO        CLOUDY    54  47  77 N12       29.81S
WORTHINGTON    CLOUDY    53  46  77 N18       29.83F
FAIRMONT       CLOUDY    52  47  83 N17       29.81S
$$

...SOUTHWEST WISCONSIN...


CITY           SKY/WX    TMP DP  RH WIND       PRES   REMARKS
LA CROSSE      LGT RAIN  59  51  75 N7        29.73F
PRAIRIE DU CHI CLOUDY    59  51  73 W7        29.73S
BOSCOBEL       CLOUDY    63  51  65 W6        29.71F
LONE ROCK      NOT AVBL
PLATTEVILLE    CLOUDY    59  54  83 SW5       29.73F
FORT MC COY    CLOUDY    58  51  75 NE3       29.73F
MAUSTON-NEW LI CLOUDY    59  53  79 CALM      29.73F HAZE
VIROQUA        CLOUDY    55  53  95 MISG      29.73S
WIS DELLS      CLOUDY    61  48  62 CALM      29.72F
$$

...ELSEWHERE IN WISCONSIN...


CITY           SKY/WX    TMP DP  RH WIND       PRES   REMARKS
MILWAUKEE      CLOUDY    65  53  65 SE9       29.73F THUNDER
MADISON        CLOUDY    62  50  64 SW5       29.71F
GREEN BAY      CLOUDY    54  49  83 NE17G24   29.78F
EAU CLAIRE     NOT AVBL
BLACK RVR FLS  CLOUDY    57  48  70 NE7       29.74F
MEDFORD        CLOUDY    55  44  66 NE14      29.79S
WAUSAU         CLOUDY    57  45  64 E13       29.77F
WIS RAPIDS     CLOUDY    59  48  67 E12       29.75F
MARSHFIELD     CLOUDY    57  46  66 NE16      29.76F
RICE LAKE      CLOUDY    55  45  70 E5        29.83S
$$

...NORTHEAST IOWA...


CITY           SKY/WX    TMP DP  RH WIND       PRES   REMARKS
WATERLOO       CLOUDY    57  47  69 W17       29.75F
DUBUQUE        CLOUDY    58  50  75 W7        29.73F
DECORAH        CLOUDY    55  48  76 NW12      29.74S
MASON CITY     CLOUDY    56  44  64 NW12      29.79F
CHARLES CITY   PTSUNNY   55  50  82 NW12      29.77S
OELWEIN        LGT RAIN  54  52  94 NW9G20    29.76S
$$

...ELSEWHERE IN IOWA...


CITY           SKY/WX    TMP DP  RH WIND       PRES   REMARKS
DES MOINES     CLOUDY    60  45  57 NW16      29.78F
IOWA CITY      CLOUDY    65  51  60 VRB7      29.75F
FORT DODGE     CLOUDY    54  48  82 N5        29.81F
MARSHALLTOWN   LGT RAIN  54  49  83 NW5       29.77F
CEDAR RAPIDS   CLOUDY    61  49  64 NW6       29.73F
$$

...NORTHERN ILLINOIS...


CITY           SKY/WX    TMP DP  RH WIND       PRES   REMARKS
CHICAGO-OHARE  LGT RAIN  62  54  74 S5        29.74F
CHICAGO-MIDWAY LGT RAIN  63  54  72 CALM      29.75F
MOLINE         CLOUDY    60  53  77 NW10      29.74S
ROCKFORD       LGT RAIN  59  57  93 W6        29.74F
PEORIA         LGT RAIN  60  58  92 SE3       29.74F
$$

NOTE: "FAIR" INDICATES FEW OR NO CLOUDS BELOW 12,000 FEET WITH NO
SIGNIFICANT WEATHER AND/OR OBSTRUCTIONS TO VISIBILITY. WIND
SPEEDS ARE IN MILES-PER-HOUR.




USA.gov is the U.S. government's official web portal to all federal, state and local government web resources and services.